Simultaneous Nadir Overpasses (SNOs) Predictions

Prediction of SNOs between AQUA and METOP-B Satellite Orbit:

Table of predicted SNOs for the next 14.0 days since TLE Epoch: 12/2/2016
Index Date (AQUA) Time (AQUA) Lat,Lon (AQUA) SZA (AQUA ) Date (METOP-B) Time (METOP-B) Lat,Lon (METOP-B) SZA (METOP-B ) Distance(km) Time Diff (sec)
1 12/03/2016 22:36:53 73.69,-164.83 95.87 12/03/2016 22:36:21 73.67,-164.84 95.86 2.12 32
2 12/03/2016 23:26:20 -73.75, 2.69 84.07 12/03/2016 23:27:01 -73.77, 2.72 84.05 2.73 41
3 12/06/2016 18:11:08 73.68, -98.37 96.22 12/06/2016 18:10:44 73.68, -98.41 96.22 1.28 24
4 12/06/2016 19:00:35 -73.74, 69.15 83.73 12/06/2016 19:01:25 -73.74, 69.04 83.73 3.53 50
5 12/09/2016 12:55:47 -73.22, 161.41 83.98 12/09/2016 12:54:38 -73.17, 159.50 83.99 61.63 69
6 12/09/2016 13:45:23 73.69, -31.94 96.52 12/09/2016 13:45:07 73.69, -31.99 96.52 1.54 16
7 12/09/2016 14:34:51 -73.79, 135.48 83.38 12/09/2016 14:35:47 -73.80, 135.59 83.38 3.59 56
8 12/12/2016 08:30:07 -73.54,-132.83 83.41 12/12/2016 08:28:54 -73.48,-133.41 83.46 19.72 73
9 12/12/2016 09:19:37 73.70, 34.47 96.76 12/12/2016 09:19:29 73.69, 34.42 96.76 1.87 8
10 12/12/2016 10:09:04 -73.75,-157.99 83.19 12/12/2016 10:10:10 -73.75,-158.10 83.19 3.46 66
11 12/15/2016 04:04:23 -73.62, -66.55 83.16 12/15/2016 04:03:14 -73.63, -66.64 83.13 3.37 69
12 12/15/2016 04:53:52 73.73, 100.86 96.97 12/15/2016 04:53:51 73.74, 100.95 96.98 3.35 1
